Ann Arbor, MI

11:29 AM EDT on October 01, 2016 (GMT -0400)
Ann Arbor Municipal

Weather History for KARB - July, 2013

Change the Weather History Date:

Tuesday, July 9, 2013

  Actual Average Record
Temperature  
Mean Temperature 78 °F -  
Max Temperature 88 °F 80 °F 95 °F (2007)
Min Temperature 69 °F 54 °F 45 °F (2004)
Cooling Degree Days 13    
Growing Degree Days 28 (Base 50)    
Moisture  
Dew Point 71 °F    
Average Humidity 89    
Maximum Humidity 100    
Minimum Humidity 61    
Precipitation  
Precipitation 0.30 in - - ()
Sea Level Pressure  
Sea Level Pressure 29.96 in    
Wind  
Wind Speed 3 mph (WSW)    
Max Wind Speed 22 mph    
Max Gust Speed 30 mph    
Visibility 5 miles    
Events Fog , Rain , Thunderstorm    
Averages and records for this station are not official NWS values.
T = Trace of Precipitation, MM = Missing Value Source: NWS Daily Summary

Daily Weather History Graph

Daily Weather History Graph

Search for Another Location

Airport or City:

Trip Planner

Search our weather history database for the weather conditions in past years. The results will help you decide how hot, cold, wet, or windy it might be!

Date:

Astronomy

Jul. 09, 2013 Rise Set
Actual Time 6:07 AM EDT 9:12 PM EDT
Civil Twilight 5:33 AM EDT 9:46 PM EDT
Nautical Twilight 4:50 AM EDT 10:29 PM EDT
Astronomical Twilight 3:58 AM EDT 11:21 PM EDT
Moon 7:33 AM EDT (7/9) 9:46 PM EDT (7/9)
Length of Visible Light 16h 12m
Length of Day
15h 05m
New Moon, 2% of the Moon is Illuminated
Jul 9
New Moon
Jul 15
First Quarter
Jul 22
Full
Jul 29
Last Quarter
Aug 6
New

Hourly Weather History & Observations

Time (EDT) Temp. Heat Index Dew Point Humidity Pressure Visibility Wind Dir Wind Speed Gust Speed Precip Events Conditions
12:25 AM 73.4 °F - 69.8 °F 88% 30.00 in 1.8 mi Calm Calm - 0.07 in Rain Heavy Rain
12:34 AM 73.4 °F - 71.6 °F 94% 30.00 in 3.0 mi Calm Calm - 0.08 in Rain Light Rain
12:53 AM 73.0 °F - 71.1 °F 93% 29.98 in 6.0 mi Calm Calm - 0.09 in Rain Light Rain
1:21 AM 71.6 °F - 69.8 °F 94% 29.99 in 6.0 mi SSW 3.5 mph - N/A   Mostly Cloudy
1:31 AM 71.6 °F - 69.8 °F 94% 29.99 in 6.0 mi South 4.6 mph - N/A   Mostly Cloudy
1:44 AM 71.6 °F - 69.8 °F 94% 29.99 in 6.0 mi SSW 3.5 mph - N/A   Mostly Cloudy
1:51 AM 71.6 °F - 69.8 °F 94% 29.99 in 6.0 mi Calm Calm - N/A   Mostly Cloudy
1:53 AM 72.0 °F - 70.0 °F 93% 29.97 in 6.0 mi Calm Calm - N/A   Mostly Cloudy
2:00 AM 71.6 °F - 69.8 °F 94% 29.98 in 6.0 mi Calm Calm - N/A   Mostly Cloudy
2:27 AM 71.6 °F - 69.8 °F 94% 29.98 in 5.0 mi Calm Calm - N/A   Overcast
2:41 AM 71.6 °F - 69.8 °F 94% 29.98 in 5.0 mi South 3.5 mph - N/A   Overcast
2:53 AM 72.0 °F - 71.1 °F 97% 29.96 in 4.0 mi Calm Calm - N/A   Overcast
3:26 AM 71.6 °F - 71.6 °F 100% 29.98 in 4.0 mi Calm Calm - N/A   Overcast
3:53 AM 72.0 °F - 71.1 °F 97% 29.96 in 4.0 mi Calm Calm - N/A   Overcast
4:32 AM 71.6 °F - 71.6 °F 100% 29.99 in 2.5 mi SW 4.6 mph - N/A   Overcast
4:53 AM 72.0 °F - 71.1 °F 97% 29.97 in 1.8 mi WSW 4.6 mph - N/A   Overcast
5:08 AM 71.6 °F - 71.6 °F 100% 29.98 in 2.0 mi Calm Calm - N/A   Overcast
5:53 AM 71.1 °F - 70.0 °F 96% 29.96 in 0.8 mi Calm Calm - N/A   Overcast
6:16 AM 69.8 °F - 69.8 °F 100% 29.98 in 0.2 mi Calm Calm - N/A Fog Fog
6:23 AM 69.8 °F - 69.8 °F 100% 29.98 in 0.5 mi Calm Calm - N/A Fog Fog
6:53 AM 69.1 °F - 68.0 °F 96% 29.97 in 0.2 mi Calm Calm - N/A Fog Fog
7:15 AM 71.6 °F - 69.8 °F 94% 29.99 in 1.5 mi Calm Calm - N/A   Mostly Cloudy
7:26 AM 71.6 °F - 69.8 °F 94% 29.99 in 2.0 mi Calm Calm - N/A   Mostly Cloudy
7:53 AM 72.0 °F - 72.0 °F 100% 29.98 in 2.5 mi SW 3.5 mph - N/A   Overcast
8:11 AM 73.4 °F - 71.6 °F 94% 30.00 in 3.0 mi West 4.6 mph - N/A   Overcast
8:53 AM 73.0 °F - 71.1 °F 93% 29.99 in 4.0 mi West 4.6 mph - N/A   Overcast
9:45 AM 75.2 °F - 71.6 °F 89% 30.00 in 4.0 mi West 3.5 mph - N/A   Mostly Cloudy
9:53 AM 75.9 °F - 71.1 °F 85% 29.99 in 4.0 mi Calm Calm - N/A   Haze
10:08 AM 77.0 °F - 71.6 °F 83% 30.00 in 5.0 mi Calm Calm - N/A   Haze
10:22 AM 77.0 °F - 71.6 °F 83% 30.00 in 6.0 mi WNW 4.6 mph - N/A   Haze
10:53 AM 79.0 °F - 70.0 °F 74% 29.98 in 8.0 mi WNW 9.2 mph - N/A   Mostly Cloudy
11:31 AM 80.6 °F 83.9 °F 69.8 °F 70% 29.99 in 8.0 mi West 9.2 mph - N/A   Scattered Clouds
11:53 AM 80.1 °F 83.2 °F 70.0 °F 71% 29.97 in 8.0 mi West 5.8 mph - N/A   Scattered Clouds
12:53 PM 84.0 °F 89.6 °F 72.0 °F 67% 29.97 in 10.0 mi SW 8.1 mph - N/A   Scattered Clouds
1:53 PM 86.0 °F 91.5 °F 71.1 °F 61% 29.95 in 10.0 mi WSW 10.4 mph - N/A   Clear
2:53 PM 86.0 °F 91.5 °F 71.1 °F 61% 29.94 in 10.0 mi WSW 6.9 mph - N/A   Clear
3:53 PM 87.1 °F 95.4 °F 73.9 °F 65% 29.91 in 10.0 mi WSW 4.6 mph - N/A   Scattered Clouds
4:53 PM 84.9 °F 92.1 °F 73.9 °F 69% 29.91 in 10.0 mi West 9.2 mph - N/A   Clear
5:18 PM 78.8 °F - 71.6 °F 78% 29.93 in 1.8 mi West 9.2 mph 19.6 mph 0.07 in Rain , Thunderstorm Heavy Rain
5:26 PM 75.2 °F - 71.6 °F 89% 29.92 in 1.0 mi Calm Calm - 0.15 in Rain , Thunderstorm Thunderstorms and Rain
5:32 PM 77.0 °F - 71.6 °F 83% 29.94 in 2.0 mi SW 21.9 mph 29.9 mph 0.15 in Rain , Thunderstorm Light Thunderstorms and Rain
5:39 PM 75.2 °F - 69.8 °F 83% 29.93 in 10.0 mi SW 12.7 mph 29.9 mph 0.15 in Thunderstorm Thunderstorm
5:53 PM 75.0 °F - 70.0 °F 84% 29.95 in 10.0 mi WNW 5.8 mph - 0.15 in Thunderstorm Thunderstorm
6:35 PM 73.4 °F - 71.6 °F 94% 29.94 in 8.0 mi West 6.9 mph - 0.00 in Rain Light Rain
6:53 PM 73.0 °F - 71.1 °F 93% 29.92 in 4.0 mi WNW 6.9 mph - 0.02 in Rain Light Rain
7:53 PM 73.0 °F - 71.1 °F 93% 29.88 in 7.0 mi Calm Calm - 0.04 in   Scattered Clouds
8:53 PM 73.0 °F - 71.1 °F 93% 29.90 in 9.0 mi SSW 4.6 mph - N/A   Mostly Cloudy
9:53 PM 73.0 °F - 71.1 °F 93% 29.91 in 9.0 mi SSW 5.8 mph - N/A   Partly Cloudy
10:53 PM 73.0 °F - 71.1 °F 93% 29.91 in 9.0 mi SSW 4.6 mph - 0.00 in Rain Light Rain
11:53 PM 72.0 °F - 71.1 °F 97% 29.88 in 7.0 mi SSW 5.8 mph - 0.00 in   Scattered Clouds